SHIJIAN-20 (SJ-20) (44910 NORAD) Tracking and Keplerian Element Data

This shows tracking and keplerian element data for the satellite.

Feedback or suggestion? Click here.




ElementValue
Catalog44910
NameSHIJIAN-20 (SJ-20)
Epoch Orbit193
Epoch Day189.89474633
Epoch Year2020
RAAN94.1929
Inclination0.2668
Eccentricity0.000806
Argument of Perigee116.3427
Mean Anonmoly163.1984
Mean Motion1.00261444
Decay Rate-3.65E-06
L11 44910U 19097A 20189.89474633 -.00000365 00000-0 00000-0 0 9993
L22 44910 0.2668 94.1929 0008060 116.3427 163.1984 1.00261444 1931

Live tracking and technical data element details for SHIJIAN-20 (SJ-20) (NORAD 44910). SHIJIAN-20 (SJ-20) can be tracked NOW for your location showing map with azimuth and elevation plus other details from your city location.

Track the satellite on the map from your city or location and see movement details for azimuth, elevation, latitude, longitude, range, height, and movement on the map or in text.







IsCatalogInMostPopularTable: catalog: 44910, numindb: 41
Update: records affected: 1



GetName: 44910 SHIJIAN-20 (SJ-20)

Hit Count: updated at: Fri, 10 Jul 2020 02:15:44 GMT